Home > Weather > Rabat > Past weeks

Flag for Morocco Weather for the Past 2 Weeks in Rabat, Morocco

Now
61 °F

Passing clouds.


Feels Like: 61 °F
Forecast: 60 / 65 °F
Wind: 8 mph from Southwest

Location: Rabat-Sale

Current Time: Feb 13, 2016 at 3:24:16 AM

Latest Report: Feb 13, 2016 at 2:30 AM


Visibility: N/A

Pressure: 30.21 "Hg

Humidity: 83%

Dew point: 55 °F

Location of RabatLocation

Historic Weather in Rabat — Graph

°F

Rabat Temperature Yesterday

Maximum temperature yesterday: 70 °F (at 1:30 PM)
Minimum temperature yesterday: 57 °F (at 12:00 AM)
Average temperature yesterday: 63 °F

High & Low Weather Summary for the Past Weeks

 TemperatureHumidityPressure
High73 °F (Feb 4, 1:30 PM)100% (Feb 1, 6:30 AM)30.57 "Hg (Feb 1, 6:30 AM)
Low41 °F (Feb 2, 4:00 AM)29% (Feb 5, 1:00 PM)30.15 "Hg (Feb 5, 4:00 AM)
Average58 °F79%30.34 "Hg
* Reported Jan 29 2:00 AM — Feb 13 2:00 AM, Rabat, Weather by CustomWeather, © 2016

Note: Actual official high and low records may vary slightly from our data, if they occured in-between our weather recording intervals... More about our weather records

Advertising

Rabat Weather History for the Previous 24 Hours

 ConditionsComfort  
Time TempWeatherWind HumidityBarometerVisibility
2:00 AM
Sat, Feb 13
61 °FPassing clouds.9 mph83%30.21 "HgN/A
1:30 AM61 °FPassing clouds.9 mph83%30.21 "HgN/A
1:00 AM61 °FPassing clouds.6 mph83%30.21 "HgN/A
12:00 AM61 °FPassing clouds.5 mph83%30.24 "HgN/A
11:00 PM
Fri, Feb 12
61 °FPassing clouds.5 mph88%30.24 "HgN/A
10:00 PM59 °FPassing clouds.5 mph88%30.24 "HgN/A
9:30 PM61 °FPassing clouds.5 mph83%30.24 "HgN/A
9:00 PM63 °FPassing clouds.5 mph77%30.24 "HgN/A
8:30 PM63 °FPassing clouds.5 mph77%30.24 "HgN/A
8:00 PM63 °FPassing clouds.6 mph77%30.24 "HgN/A
7:30 PM63 °FPassing clouds.7 mph77%30.24 "HgN/A
7:00 PM63 °FPassing clouds.7 mph77%30.24 "HgN/A
6:30 PM61 °FPassing clouds.5 mph83%30.24 "HgN/A
6:00 PM63 °FPassing clouds.7 mph77%30.21 "HgN/A
5:30 PM64 °FPassing clouds.9 mph73%30.21 "Hg5 mi
5:00 PM64 °FScattered clouds.8 mph73%30.21 "Hg5 mi
4:30 PM64 °FScattered clouds.12 mph68%30.21 "HgN/A
4:00 PM66 °FScattered clouds.9 mph64%30.21 "Hg5 mi
3:30 PM66 °FScattered clouds.10 mph68%30.21 "Hg5 mi
3:00 PM68 °FScattered clouds.9 mph64%30.18 "Hg5 mi
2:30 PM68 °FScattered clouds.9 mph69%30.21 "Hg5 mi
2:00 PM68 °FScattered clouds.10 mph64%30.21 "Hg5 mi
1:30 PM70 °FScattered clouds.10 mph64%30.24 "Hg5 mi
1:00 PM68 °FScattered clouds.7 mph64%30.24 "Hg5 mi
12:30 PM66 °FScattered clouds.7 mph68%30.27 "Hg5 mi
12:00 PM66 °FBroken clouds.9 mph73%30.27 "Hg5 mi
11:30 AM64 °FBroken clouds.7 mph73%30.27 "Hg5 mi
11:00 AM66 °FBroken clouds.5 mph68%30.30 "Hg5 mi
10:30 AM66 °FBroken clouds.6 mph68%30.30 "Hg5 mi
10:00 AM66 °FBroken clouds.3 mph73%30.27 "Hg5 mi
9:30 AM63 °FPartly sunny.5 mph83%30.27 "Hg5 mi
9:00 AM63 °FPartly sunny.5 mph83%30.27 "Hg5 mi
8:30 AM61 °FPartly sunny.5 mph88%30.27 "Hg5 mi
8:00 AM59 °FPartly sunny.2 mph94%30.27 "Hg5 mi
7:30 AM59 °FPartly sunny.1 mph94%30.27 "Hg5 mi
7:00 AM59 °FPartly sunny.2 mph94%30.27 "Hg5 mi
6:30 AM61 °FPartly sunny.3 mph88%30.24 "Hg5 mi
6:00 AM59 °FPassing clouds.5 mph94%30.24 "Hg5 mi
5:30 AM59 °FPassing clouds.3 mph94%30.21 "Hg5 mi
5:00 AM59 °FPassing clouds.5 mph94%30.21 "Hg5 mi
4:00 AM59 °FPassing clouds.2 mph94%30.24 "Hg4 mi
3:00 AM61 °FPassing clouds.2 mph88%30.24 "Hg4 mi
Weather by CustomWeather, © 2016

See weather overviewHow to use our weather pages